This demonstration page uses our WeatherBlox Daily Observations layout. Learn more.

Left ArrowRight Arrow

Hourly Observations for February 6, 2020

Temp ( °F °C ) Dew Point ( °F °C ) Humidity (%) Winds ( mph kmh ) Pressure ( in mb ) Visibility ( mi km ) Precip ( " mm )
12:53 am 00:53 Cloudy 33 0.6 32 undefined 96 96 NE 7 11 29.62 1003 10 16 N/A
1:53 am 01:53 Cloudy with Mist and Fog 33 0.6 32 undefined 96 96 N 5 7 29.63 1003 5 8 N/A
2:23 am 02:23 Cloudy with Mist and Fog 33 0.6 32 undefined 96 96 NNW 9 15 29.66 1004 2 3 N/A
2:37 am 02:37 Cloudy with Mist and Fog 33 0.6 32 undefined 96 96 N 7 11 29.65 1004 2 3 N/A
2:53 am 02:53 Cloudy with Mist and Fog 33 0.6 32 undefined 96 96 N 7 11 29.64 1004 3 4 N/A
3:13 am 03:13 Cloudy with Mist and Fog 33 0.6 32 undefined 96 96 N 6 9 29.64 1004 3 4 N/A
3:28 am 03:28 Cloudy with Mist and Fog 33 0.6 31 -0.6 92 92 N 5 7 29.65 1004 3 5 N/A
3:53 am 03:53 Cloudy with Mist and Fog 33 0.6 31 -0.6 92 92 NNE 7 11 29.62 1003 5 8 N/A
4:08 am 04:08 Cloudy with Mist and Fog 33 0.6 31 -0.6 92 92 N 5 7 29.64 1004 4 6 N/A
4:41 am 04:41 Cloudy with Mist and Fog 33 0.6 31 -0.6 92 92 NNE 6 9 29.60 1002 5 8 N/A
4:53 am 04:53 Cloudy with Mist and Fog 33 0.6 31 -0.6 92 92 NNE 9 15 29.58 1002 6 10 N/A
5:00 am 05:00 Cloudy 33 0.6 31 -0.6 92 92 N 7 11 29.60 1002 7 11 N/A
5:53 am 05:53 Cloudy 33 0.6 31 -0.6 92 92 NNE 7 11 29.57 1001 9 14 N/A
6:53 am 06:53 Cloudy 32 undefined 30 -1.1 92 92 NE 7 11 29.57 1001 10 16 N/A
7:46 am 07:46 Cloudy 32 undefined 31 -0.6 96 96 N 5 7 29.57 1001 8 13 N/A
7:53 am 07:53 Cloudy 33 0.6 31 -0.6 92 92 N 5 7 29.56 1001 7 11 N/A
8:53 am 08:53 Cloudy with Mist and Fog 32 undefined 31 -0.6 96 96 NW 6 9 29.61 1003 3 4 N/A
9:02 am 09:02 Cloudy with Mist and Fog 32 undefined 31 -0.6 96 96 NNW 7 11 29.60 1002 2 3 N/A
9:53 am 09:53 Cloudy with Mist and Fog 32 undefined 31 -0.6 96 96 NW 12 19 29.64 1004 3 4 N/A
10:06 am 10:06 Cloudy with Light Wintry Mix 32 undefined 31 -0.6 96 96 VRB 6 9 29.62 1003 2 2 0.00 0.00
10:16 am 10:16 Cloudy with Light Wintry Mix 33 0.6 31 -0.6 92 92 NNW 8 13 29.61 1003 2 2 0.01 0.25
10:18 am 10:18 Cloudy with Light Wintry Mix 33 0.6 31 -0.6 92 92 N 7 11 29.61 1003 2 3 0.01 0.25
10:30 am 10:30 Cloudy with Light Rain 33 0.6 31 -0.6 92 92 NNE 8 13 29.59 1002 4 6 0.01 0.25
10:53 am 10:53 Cloudy with Light Wintry Mix 33 0.6 31 -0.6 92 92 N 9 15 29.57 1001 9 14 0.02 0.51
11:53 am 11:53 Cloudy 32 undefined 30 -1.1 92 92 NE 8 13 29.52 1000 10 16 0.00 0.00
12:53 pm 12:53 Cloudy 33 0.6 30 -1.1 89 89 N 5 7 29.50 999 10 16 N/A
1:53 pm 13:53 Cloudy 33 0.6 30 -1.1 89 89 NNW 6 9 29.49 999 9 14 N/A
2:53 pm 14:53 Cloudy 32 undefined 30 -1.1 92 92 NNW 8 13 29.47 998 10 16 N/A
3:53 pm 15:53 Cloudy with Light Wintry Mix 32 undefined 29 -1.7 88 88 NW 9 15 29.49 999 6 10 0.00 0.00
4:34 pm 16:34 Cloudy with Light Snow 32 undefined 29 -1.7 88 88 NW 8 13 29.52 1000 2 3 0.00 0.00
4:37 pm 16:37 Cloudy with Light Snow 32 undefined 29 -1.7 88 88 NW 9 15 29.52 1000 1 2 0.00 0.00
4:51 pm 16:51 Cloudy with Light Snow 30 -1 30 -1 100 100 NW 8 13 29.52 1000 2 3 0.00 0.00
4:53 pm 16:53 Cloudy with Light Snow 31 -0.6 30 -1.1 96 96 NW 7 11 29.49 999 2 3 0.00 0.00
5:03 pm 17:03 Cloudy with Mist and Fog 32 undefined 30 -1.1 92 92 NW 7 11 29.51 999 3 5 0.00 0.00
5:11 pm 17:11 Cloudy with Mist and Fog 32 undefined 30 -1.1 92 92 NNW 5 7 29.51 999 3 5 0.00 0.00
5:34 pm 17:34 Cloudy with Mist and Fog 32 undefined 30 -1.1 92 92 NNW 6 9 29.52 1000 5 8 0.00 0.00
5:41 pm 17:41 Cloudy with Mist and Fog 32 undefined 29 -1.7 88 88 NNW 8 13 29.51 999 6 10 0.00 0.00
5:53 pm 17:53 Cloudy with Mist and Fog 32 undefined 29 -1.7 88 88 NNW 8 13 29.49 999 4 6 0.00 0.00
6:24 pm 18:24 Cloudy with Mist and Fog 31 -0.6 29 -1.7 92 92 N 7 11 29.51 999 6 10 N/A
6:43 pm 18:43 Cloudy 31 -0.6 27 -2.8 85 85 NNW 9 15 29.53 1000 10 16 N/A
6:53 pm 18:53 Cloudy 31 -0.6 27 -2.8 85 85 NNW 7 11 29.51 999 10 16 N/A
7:07 pm 19:07 Cloudy 31 -0.6 26 -3.3 82 82 N 8 13 29.53 1000 10 16 N/A
7:53 pm 19:53 Cloudy 30 -1.1 27 -2.8 88 88 NNW 6 9 29.50 999 10 16 N/A
8:05 pm 20:05 Cloudy 30 -1.1 27 -2.8 88 88 NNW 5 7 29.53 1000 9 14 N/A
8:53 pm 20:53 Cloudy 30 -1.1 26 -3.3 85 85 NNW 8 13 29.50 999 10 16 N/A
9:27 pm 21:27 Cloudy 30 -1.1 26 -3.3 85 85 NW 7 11 29.53 1000 8 13 N/A
9:53 pm 21:53 Cloudy with Mist and Fog 30 -1.1 26 -3.3 85 85 NNW 8 13 29.48 998 6 10 N/A
10:10 pm 22:10 Cloudy with Mist and Fog 30 -1.1 27 -2.8 88 88 NW 7 11 29.52 1000 6 10 N/A
10:33 pm 22:33 Cloudy with Mist and Fog 30 -1.1 27 -2.8 88 88 NW 6 9 29.52 1000 6 10 N/A
10:53 pm 22:53 Cloudy 30 -1.1 26 -3.3 85 85 NNW 7 11 29.49 999 7 11 N/A
11:53 pm 23:53 Cloudy 30 -1.1 26 -3.3 85 85 NNW 6 9 29.49 999 7 11 N/A

Powered by AerisWeather